Time,TemperatureF,DewpointF,PressureIn,WindDirection,WindDirectionDegrees,WindSpeedMPH,WindSpeedGustMPH,Humidity,HourlyPrecipIn,Conditions,Clouds,dailyrainin,SoftwareType,DateUTC
2013-04-30 00:02:00,69.0,54.0,29.74,SSE,157,10.0,14.0,58,-99.99,,,-99.99,,2013-04-30 05:02:00,
2013-04-30 00:12:00,69.0,54.0,29.74,South,180,11.0,14.0,58,-99.99,,,-99.99,,2013-04-30 05:12:00,
2013-04-30 00:22:00,69.0,54.0,29.73,SSE,157,10.0,15.0,59,-99.99,,,-99.99,,2013-04-30 05:22:00,
2013-04-30 00:31:00,69.0,54.0,29.74,SSE,157,10.0,14.0,59,-99.99,,,-99.99,,2013-04-30 05:31:00,
2013-04-30 00:42:00,69.0,54.0,29.74,SSE,157,11.0,16.0,58,-99.99,,,-99.99,,2013-04-30 05:42:00,
2013-04-30 00:51:00,69.0,54.0,29.74,South,180,10.0,15.0,58,-99.99,,,-99.99,,2013-04-30 05:51:00,
2013-04-30 01:01:00,68.0,54.0,29.74,SSE,157,10.0,16.0,60,-99.99,,,-99.99,,2013-04-30 06:01:00,
2013-04-30 01:11:00,69.0,54.0,29.74,South,180,12.0,16.0,59,-99.99,,,-99.99,,2013-04-30 06:11:00,
2013-04-30 01:21:00,69.0,54.0,29.74,SSW,202,10.0,14.0,59,-99.99,,,-99.99,,2013-04-30 06:21:00,
2013-04-30 01:31:00,68.0,54.0,29.74,South,180,10.0,14.0,60,-99.99,,,-99.99,,2013-04-30 06:31:00,
2013-04-30 01:41:00,67.0,54.0,29.75,South,180,9.0,14.0,62,-99.99,,,-99.99,,2013-04-30 06:41:00,
2013-04-30 01:52:00,67.0,54.0,29.75,SSE,157,9.0,14.0,63,-99.99,,,-99.99,,2013-04-30 06:52:00,
2013-04-30 02:00:00,67.0,53.0,29.75,South,180,9.0,13.0,62,-99.99,,,-99.99,,2013-04-30 07:00:00,
2013-04-30 02:01:00,67.0,54.0,29.75,South,180,9.0,13.0,62,-99.99,,,-99.99,,2013-04-30 07:01:00,
2013-04-30 02:11:00,67.0,53.0,29.75,SSW,202,9.0,14.0,62,-99.99,,,-99.99,,2013-04-30 07:11:00,
2013-04-30 02:21:00,67.0,53.0,29.75,South,180,9.0,13.0,62,-99.99,,,-99.99,,2013-04-30 07:21:00,
2013-04-30 02:31:00,67.0,53.0,29.75,South,180,9.0,13.0,62,-99.99,,,-99.99,,2013-04-30 07:31:00,
2013-04-30 02:41:00,67.0,53.0,29.75,South,180,9.0,13.0,62,-99.99,,,-99.99,,2013-04-30 07:41:00,
2013-04-30 02:52:00,67.0,53.0,29.75,South,180,9.0,13.0,62,-99.99,,,-99.99,,2013-04-30 07:52:00,
2013-04-30 03:52:00,67.0,53.0,29.78,South,180,8.0,13.0,61,-99.99,,,-99.99,,2013-04-30 08:52:00,
2013-04-30 04:01:00,67.0,54.0,29.77,South,180,10.0,13.0,62,-99.99,,,-99.99,,2013-04-30 09:01:00,
2013-04-30 04:11:00,67.0,54.0,29.77,South,180,10.0,14.0,63,-99.99,,,-99.99,,2013-04-30 09:11:00,
2013-04-30 04:22:00,66.0,54.0,29.78,SSW,202,8.0,12.0,64,-99.99,,,-99.99,,2013-04-30 09:22:00,
2013-04-30 04:33:00,66.0,54.0,29.78,SSW,202,9.0,13.0,65,-99.99,,,-99.99,,2013-04-30 09:33:00,
2013-04-30 04:43:00,65.0,54.0,29.78,SSE,157,8.0,13.0,66,-99.99,,,-99.99,,2013-04-30 09:43:00,
2013-04-30 04:52:00,65.0,54.0,29.78,South,180,8.0,13.0,67,-99.99,,,-99.99,,2013-04-30 09:52:00,
2013-04-30 05:03:00,64.0,54.0,29.78,SSW,202,7.0,9.0,69,-99.99,,,-99.99,,2013-04-30 10:03:00,
2013-04-30 05:11:00,63.0,54.0,29.79,South,180,7.0,10.0,71,-99.99,,,-99.99,,2013-04-30 10:11:00,
2013-04-30 05:22:00,63.0,54.0,29.79,SSE,157,6.0,11.0,74,-99.99,,,-99.99,,2013-04-30 10:22:00,
2013-04-30 05:32:00,62.0,54.0,29.78,SE,135,7.0,10.0,76,-99.99,,,-99.99,,2013-04-30 10:32:00,
2013-04-30 05:41:00,62.0,54.0,29.79,South,180,7.0,10.0,75,-99.99,,,-99.99,,2013-04-30 10:41:00,
2013-04-30 05:52:00,62.0,54.0,29.80,South,180,7.0,11.0,76,-99.99,,,-99.99,,2013-04-30 10:52:00,
2013-04-30 06:02:00,61.0,54.0,29.80,SSE,157,7.0,10.0,76,-99.99,,,-99.99,,2013-04-30 11:02:00,
2013-04-30 06:11:00,62.0,54.0,29.80,South,180,7.0,9.0,76,-99.99,,,-99.99,,2013-04-30 11:11:00,
2013-04-30 06:21:00,61.0,54.0,29.80,South,180,6.0,9.0,78,-99.99,,,-99.99,,2013-04-30 11:21:00,
2013-04-30 06:31:00,61.0,54.0,29.80,South,180,7.0,9.0,78,-99.99,,,-99.99,,2013-04-30 11:31:00,
2013-04-30 06:42:00,61.0,54.0,29.81,South,180,7.0,9.0,78,-99.99,,,-99.99,,2013-04-30 11:42:00,
2013-04-30 06:51:00,61.0,54.0,29.81,South,180,6.0,8.0,77,-99.99,,,-99.99,,2013-04-30 11:51:00,
2013-04-30 07:01:00,61.0,54.0,29.81,SSE,157,7.0,9.0,76,-99.99,,,-99.99,,2013-04-30 12:01:00,
2013-04-30 07:11:00,62.0,54.0,29.81,SSE,157,7.0,11.0,75,-99.99,,,-99.99,,2013-04-30 12:11:00,
2013-04-30 07:21:00,63.0,54.0,29.81,SSW,202,6.0,9.0,74,-99.99,,,-99.99,,2013-04-30 12:21:00,
2013-04-30 07:31:00,64.0,54.0,29.82,South,180,8.0,13.0,72,-99.99,,,-99.99,,2013-04-30 12:31:00,
2013-04-30 07:41:00,64.0,54.0,29.82,South,180,7.0,9.0,72,-99.99,,,-99.99,,2013-04-30 12:41:00,
2013-04-30 07:51:00,64.0,55.0,29.82,South,180,8.0,12.0,71,-99.99,,,-99.99,,2013-04-30 12:51:00,
2013-04-30 08:01:00,65.0,55.0,29.82,SSW,202,8.0,11.0,70,-99.99,,,-99.99,,2013-04-30 13:01:00,
2013-04-30 08:11:00,65.0,55.0,29.83,SW,225,7.0,12.0,69,-99.99,,,-99.99,,2013-04-30 13:11:00,
2013-04-30 08:21:00,66.0,55.0,29.83,SSW,202,9.0,13.0,68,-99.99,,,-99.99,,2013-04-30 13:21:00,
2013-04-30 08:31:00,67.0,56.0,29.83,SW,225,10.0,16.0,68,-99.99,,,-99.99,,2013-04-30 13:31:00,
2013-04-30 08:41:00,67.0,56.0,29.83,SSW,202,11.0,16.0,67,-99.99,,,-99.99,,2013-04-30 13:41:00,
2013-04-30 08:51:00,68.0,56.0,29.82,South,180,10.0,16.0,65,-99.99,,,-99.99,,2013-04-30 13:51:00,
2013-04-30 09:02:00,68.0,56.0,29.83,SW,225,13.0,18.0,65,-99.99,,,-99.99,,2013-04-30 14:02:00,
2013-04-30 09:11:00,69.0,57.0,29.83,SSW,202,13.0,22.0,65,-99.99,,,-99.99,,2013-04-30 14:11:00,
2013-04-30 09:21:00,70.0,56.0,29.83,South,180,11.0,17.0,62,-99.99,,,-99.99,,2013-04-30 14:21:00,
2013-04-30 09:31:00,70.0,57.0,29.83,SSW,202,13.0,18.0,62,-99.99,,,-99.99,,2013-04-30 14:31:00,
2013-04-30 09:41:00,71.0,58.0,29.83,South,180,12.0,16.0,62,-99.99,,,-99.99,,2013-04-30 14:41:00,
2013-04-30 09:52:00,71.0,56.0,29.83,South,180,12.0,19.0,60,-99.99,,,-99.99,,2013-04-30 14:52:00,
2013-04-30 10:01:00,71.0,58.0,29.83,South,180,12.0,16.0,62,-99.99,,,-99.99,,2013-04-30 15:01:00,
2013-04-30 10:11:00,72.0,57.0,29.83,SW,225,13.0,18.0,59,-99.99,,,-99.99,,2013-04-30 15:11:00,
2013-04-30 10:21:00,73.0,57.0,29.83,SW,225,14.0,22.0,58,-99.99,,,-99.99,,2013-04-30 15:21:00,
2013-04-30 10:32:00,74.0,58.0,29.83,SW,225,14.0,25.0,58,-99.99,,,-99.99,,2013-04-30 15:32:00,
2013-04-30 10:42:00,74.0,58.0,29.83,SW,225,14.0,21.0,58,-99.99,,,-99.99,,2013-04-30 15:42:00,
2013-04-30 10:52:00,74.0,55.0,29.83,SSW,202,16.0,26.0,53,-99.99,,,-99.99,,2013-04-30 15:52:00,
2013-04-30 11:02:00,74.0,56.0,29.83,SW,225,16.0,23.0,54,-99.99,,,-99.99,,2013-04-30 16:02:00,
2013-04-30 11:12:00,74.0,55.0,29.83,SSW,202,15.0,21.0,51,-99.99,,,-99.99,,2013-04-30 16:12:00,
2013-04-30 11:22:00,75.0,57.0,29.83,SW,225,13.0,20.0,54,-99.99,,,-99.99,,2013-04-30 16:22:00,
2013-04-30 11:33:00,76.0,54.0,29.83,SW,225,13.0,20.0,47,-99.99,,,-99.99,,2013-04-30 16:33:00,
2013-04-30 11:42:00,76.0,53.0,29.84,SW,225,15.0,22.0,46,-99.99,,,-99.99,,2013-04-30 16:42:00,
2013-04-30 11:52:00,76.0,55.0,29.83,SSW,202,13.0,20.0,48,-99.99,,,-99.99,,2013-04-30 16:52:00,
2013-04-30 12:02:00,77.0,56.0,29.83,SW,225,11.0,17.0,48,-99.99,,,-99.99,,2013-04-30 17:02:00,
2013-04-30 12:12:00,77.0,52.0,29.83,SSW,202,14.0,20.0,42,-99.99,,,-99.99,,2013-04-30 17:12:00,
2013-04-30 12:22:00,77.0,50.0,29.83,SSW,202,13.0,20.0,39,-99.99,,,-99.99,,2013-04-30 17:22:00,
2013-04-30 12:32:00,78.0,52.0,29.82,South,180,15.0,20.0,40,-99.99,,,-99.99,,2013-04-30 17:32:00,
2013-04-30 12:42:00,79.0,49.0,29.82,SSW,202,11.0,19.0,35,-99.99,,,-99.99,,2013-04-30 17:42:00,
2013-04-30 12:52:00,79.0,54.0,29.81,SSW,202,12.0,19.0,42,-99.99,,,-99.99,,2013-04-30 17:52:00,
2013-04-30 13:01:00,78.0,52.0,29.82,SW,225,13.0,17.0,41,-99.99,,,-99.99,,2013-04-30 18:01:00,
2013-04-30 13:11:00,79.0,47.0,29.81,South,180,16.0,23.0,32,-99.99,,,-99.99,,2013-04-30 18:11:00,
2013-04-30 13:22:00,79.0,47.0,29.81,SSW,202,13.0,20.0,33,-99.99,,,-99.99,,2013-04-30 18:22:00,
2013-04-30 13:32:00,80.0,49.0,29.81,SSW,202,12.0,16.0,34,-99.99,,,-99.99,,2013-04-30 18:32:00,
2013-04-30 13:41:00,80.0,50.0,29.81,SSW,202,11.0,20.0,36,-99.99,,,-99.99,,2013-04-30 18:41:00,
2013-04-30 13:51:00,80.0,46.0,29.80,South,180,14.0,20.0,30,-99.99,,,-99.99,,2013-04-30 18:51:00,
2013-04-30 14:01:00,80.0,49.0,29.80,SSW,202,13.0,17.0,33,-99.99,,,-99.99,,2013-04-30 19:01:00,
2013-04-30 14:11:00,80.0,50.0,29.80,South,180,14.0,22.0,35,-99.99,,,-99.99,,2013-04-30 19:11:00,
2013-04-30 14:21:00,81.0,48.0,29.79,South,180,10.0,16.0,32,-99.99,,,-99.99,,2013-04-30 19:21:00,
2013-04-30 14:32:00,80.0,52.0,29.80,SSW,202,13.0,20.0,37,-99.99,,,-99.99,,2013-04-30 19:32:00,
2013-04-30 14:42:00,81.0,45.0,29.79,South,180,13.0,21.0,28,-99.99,,,-99.99,,2013-04-30 19:42:00,
2013-04-30 14:52:00,81.0,48.0,29.80,SSE,157,14.0,20.0,32,-99.99,,,-99.99,,2013-04-30 19:52:00,
2013-04-30 15:02:00,82.0,50.0,29.80,South,180,12.0,20.0,33,-99.99,,,-99.99,,2013-04-30 20:02:00,
2013-04-30 15:11:00,81.0,46.0,29.80,SSE,157,12.0,19.0,30,-99.99,,,-99.99,,2013-04-30 20:11:00,
2013-04-30 15:21:00,81.0,49.0,29.80,SSE,157,12.0,19.0,32,-99.99,,,-99.99,,2013-04-30 20:21:00,
2013-04-30 15:32:00,81.0,47.0,29.80,South,180,13.0,20.0,31,-99.99,,,-99.99,,2013-04-30 20:32:00,
2013-04-30 15:42:00,81.0,49.0,29.81,SSE,157,13.0,20.0,33,-99.99,,,-99.99,,2013-04-30 20:42:00,
2013-04-30 15:52:00,81.0,50.0,29.80,South,180,13.0,20.0,34,-99.99,,,-99.99,,2013-04-30 20:52:00,
2013-04-30 16:01:00,81.0,50.0,29.81,South,180,12.0,22.0,34,-99.99,,,-99.99,,2013-04-30 21:01:00,
2013-04-30 16:11:00,81.0,46.0,29.81,SSE,157,12.0,18.0,29,-99.99,,,-99.99,,2013-04-30 21:11:00,
2013-04-30 16:22:00,81.0,46.0,29.81,SSW,202,12.0,18.0,30,-99.99,,,-99.99,,2013-04-30 21:22:00,
2013-04-30 16:32:00,81.0,47.0,29.80,South,180,14.0,23.0,30,-99.99,,,-99.99,,2013-04-30 21:32:00,
2013-04-30 16:42:00,81.0,45.0,29.80,SSW,202,11.0,17.0,28,-99.99,,,-99.99,,2013-04-30 21:42:00,
2013-04-30 16:52:00,81.0,49.0,29.80,South,180,14.0,21.0,32,-99.99,,,-99.99,,2013-04-30 21:52:00,
2013-04-30 17:02:00,81.0,48.0,29.80,South,180,12.0,18.0,32,-99.99,,,-99.99,,2013-04-30 22:02:00,
2013-04-30 17:12:00,81.0,48.0,29.81,SSE,157,13.0,18.0,31,-99.99,,,-99.99,,2013-04-30 22:12:00,
2013-04-30 17:22:00,81.0,50.0,29.81,SSE,157,10.0,14.0,34,-99.99,,,-99.99,,2013-04-30 22:22:00,
2013-04-30 17:32:00,81.0,50.0,29.81,South,180,10.0,16.0,34,-99.99,,,-99.99,,2013-04-30 22:32:00,
2013-04-30 17:41:00,81.0,49.0,29.81,South,180,12.0,18.0,33,-99.99,,,-99.99,,2013-04-30 22:41:00,
2013-04-30 17:52:00,80.0,50.0,29.81,SSE,157,12.0,20.0,34,-99.99,,,-99.99,,2013-04-30 22:52:00,
2013-04-30 18:02:00,80.0,49.0,29.81,South,180,12.0,17.0,34,-99.99,,,-99.99,,2013-04-30 23:02:00,
2013-04-30 18:12:00,80.0,49.0,29.81,South,180,10.0,16.0,33,-99.99,,,-99.99,,2013-04-30 23:12:00,
2013-04-30 18:21:00,80.0,48.0,29.81,South,180,9.0,15.0,32,-99.99,,,-99.99,,2013-04-30 23:21:00,
2013-04-30 18:32:00,80.0,49.0,29.81,South,180,10.0,18.0,34,-99.99,,,-99.99,,2013-04-30 23:32:00,
2013-04-30 18:42:00,80.0,49.0,29.81,South,180,9.0,14.0,34,-99.99,,,-99.99,,2013-04-30 23:42:00,
2013-04-30 18:52:00,79.0,49.0,29.81,SW,225,8.0,12.0,35,-99.99,,,-99.99,,2013-04-30 23:52:00,
2013-04-30 19:02:00,79.0,48.0,29.81,South,180,7.0,11.0,34,-99.99,,,-99.99,,2013-05-01 00:02:00,
2013-04-30 19:11:00,78.0,49.0,29.81,South,180,7.0,9.0,36,-99.99,,,-99.99,,2013-05-01 00:11:00,
2013-04-30 19:21:00,77.0,48.0,29.81,SSW,202,6.0,9.0,36,-99.99,,,-99.99,,2013-05-01 00:21:00,
2013-04-30 19:32:00,76.0,48.0,29.81,SSW,202,7.0,10.0,38,-99.99,,,-99.99,,2013-05-01 00:32:00,
2013-04-30 19:42:00,76.0,48.0,29.81,South,180,7.0,11.0,38,-99.99,,,-99.99,,2013-05-01 00:42:00,
2013-04-30 19:51:00,75.0,50.0,29.81,South,180,5.0,7.0,42,-99.99,,,-99.99,,2013-05-01 00:51:00,
2013-04-30 20:01:00,74.0,51.0,29.81,South,180,5.0,7.0,44,-99.99,,,-99.99,,2013-05-01 01:01:00,
2013-04-30 20:11:00,74.0,49.0,29.82,SSE,157,4.0,8.0,42,-99.99,,,-99.99,,2013-05-01 01:11:00,
2013-04-30 20:21:00,73.0,50.0,29.82,South,180,5.0,8.0,44,-99.99,,,-99.99,,2013-05-01 01:21:00,
2013-04-30 20:31:00,72.0,49.0,29.82,SSE,157,4.0,7.0,44,-99.99,,,-99.99,,2013-05-01 01:31:00,
2013-04-30 20:41:00,72.0,49.0,29.82,SE,135,5.0,8.0,44,-99.99,,,-99.99,,2013-05-01 01:41:00,
2013-04-30 20:52:00,71.0,49.0,29.82,South,180,5.0,7.0,45,-99.99,,,-99.99,,2013-05-01 01:52:00,
2013-04-30 21:02:00,71.0,49.0,29.83,South,180,5.0,7.0,44,-99.99,,,-99.99,,2013-05-01 02:02:00,
2013-04-30 21:11:00,71.0,50.0,29.83,SSE,157,4.0,8.0,47,-99.99,,,-99.99,,2013-05-01 02:11:00,
2013-04-30 21:21:00,71.0,48.0,29.84,SSE,157,4.0,7.0,45,-99.99,,,-99.99,,2013-05-01 02:21:00,
2013-04-30 21:32:00,70.0,49.0,29.85,SSE,157,4.0,6.0,46,-99.99,,,-99.99,,2013-05-01 02:32:00,
2013-04-30 21:42:00,70.0,48.0,29.85,SSE,157,5.0,7.0,45,-99.99,,,-99.99,,2013-05-01 02:42:00,
2013-04-30 21:51:00,70.0,48.0,29.85,SSE,157,5.0,7.0,45,-99.99,,,-99.99,,2013-05-01 02:51:00,
2013-04-30 22:01:00,70.0,48.0,29.85,South,180,5.0,8.0,45,-99.99,,,-99.99,,2013-05-01 03:01:00,
2013-04-30 22:11:00,69.0,48.0,29.86,SE,135,4.0,7.0,47,-99.99,,,-99.99,,2013-05-01 03:11:00,
2013-04-30 22:21:00,69.0,48.0,29.86,SSE,157,3.0,5.0,48,-99.99,,,-99.99,,2013-05-01 03:21:00,
2013-04-30 22:33:00,68.0,48.0,29.86,SE,135,3.0,6.0,49,-99.99,,,-99.99,,2013-05-01 03:33:00,
2013-04-30 22:42:00,69.0,48.0,29.87,SSE,157,5.0,9.0,47,-99.99,,,-99.99,,2013-05-01 03:42:00,
2013-04-30 22:52:00,69.0,47.0,29.87,SSE,157,5.0,8.0,46,-99.99,,,-99.99,,2013-05-01 03:52:00,
2013-04-30 23:03:00,68.0,47.0,29.87,SSE,157,5.0,9.0,46,-99.99,,,-99.99,,2013-05-01 04:03:00,
2013-04-30 23:12:00,68.0,47.0,29.87,South,180,5.0,8.0,46,-99.99,,,-99.99,,2013-05-01 04:12:00,
2013-04-30 23:22:00,68.0,47.0,29.88,SE,135,4.0,8.0,46,-99.99,,,-99.99,,2013-05-01 04:22:00,
2013-04-30 23:32:00,68.0,47.0,29.88,SSE,157,4.0,7.0,47,-99.99,,,-99.99,,2013-05-01 04:32:00,
2013-04-30 23:42:00,68.0,46.0,29.88,SSE,157,4.0,8.0,46,-99.99,,,-99.99,,2013-05-01 04:42:00,
2013-04-30 23:52:00,68.0,46.0,29.88,SSE,157,4.0,7.0,47,-99.99,,,-99.99,,2013-05-01 04:52:00,